sat.trackr.live / text

‹ back to catalog

STARLINK-36120

NORAD 67016 · 2025-293P

PAYLOAD ACTIVE UNKNOWN

§ Identity

Operator
Country
US
Launch date
2025-12-10
Launch site
AFWTR
Launch vehicle
Mass (kg)
RCS (m²)

Purposes: comms

External: N2YO · Heavens-Above · Gunter

§ Orbital elements

Epoch: 2026-05-25T00:56:22.496064Z

Period
96.11 min
Inclination
70.0007°
Eccentricity
0.0003648
Mean motion
14.98337482 rev/d
Perigee alt
569.5 km
Apogee alt
574.6 km
Semi-major
6,950.2 km
B*
2.1297e-4
RAAN
261.9722°
Arg perigee
268.7021°
Mean anomaly
91.3720°
Rev number
2,632

§ Raw data

STARLINK-361201 67016U 25293P   26145.03914926  .00002449  00000+0  21297-3 0  99952 67016  70.0007 261.9722 0003648 268.7021  91.3720 14.98337482 26326

JSON: /api/v1/satellites/67016 · /tle

For live sub-satellite position, see the globe view (requires WebGL).

§ Visibility from observer

Set your observer location to see the next 7 days of passes ≥ 10°. The values pass through the URL so the page stays shareable.

No JS? Fill the form by hand. The geolocation button needs JavaScript.